Home   Weather   Rust   Past weeks

Flag for Austria Past Weather in Rust, Burgenland, Austria — Yesterday and Last 2 Weeks

Now
42 °F

Light rain. Overcast.


Feels Like: 40 °F
Forecast: 41 / 56 °F
Wind: 3 mph from Northwest

Location: Eisenstadt

Current Time: Apr 28, 2017 at 7:01:26 am

Latest Report: Apr 28, 2017 at 6:00 am


Visibility: 5 mi

Pressure: 29.77 "Hg

Humidity: 91%

Dew Point: 39 °F

Location of RustLocation

Past Weather in Rust — Graph

°F

Rust Temperature Yesterday

Maximum temperature yesterday: 47 °F (at 12:00 am)
Minimum temperature yesterday: 42 °F (at 8:00 am)
Average temperature yesterday: 45 °F

High & Low Weather Summary for the Past Weeks

 TemperatureHumidityPressure
High75 °F (Apr 25, 3:00 pm)95% (Apr 19, 9:00 pm)30.48 "Hg (Apr 19, 9:00 pm)
Low31 °F (Apr 21, 6:00 am)30% (Apr 25, 2:00 pm)29.65 "Hg (Apr 25, 7:00 pm)
Average48 °F67%30.01 "Hg
* Reported Apr 13 5:00 am — Apr 28 5:00 am, Rust, Weather by CustomWeather, © 2017

Note: Actual official high and low records may vary slightly from our data, if they occured in-between our weather recording intervals... More about our weather records

Advertising

Rust Weather History for the Previous 24 Hours

Scroll right to see more
 ConditionsComfort  
Time TempWeatherWind HumidityBarometerVisibility
5:00 am
Fri, Apr 28
42 °FLight rain. Overcast.3 mph92%29.77 "Hg5 mi
4:00 am42 °FLight rain. Overcast.2 mph93%29.80 "Hg5 mi
3:00 am42 °FFog.1 mph92%29.80 "HgN/A
2:00 am42 °FDrizzle. Overcast.3 mph93%29.82 "Hg5 mi
1:00 am42 °FQuite cool.2 mph91%29.85 "HgN/A
12:00 am43 °FFog.3 mph91%29.88 "HgN/A
11:00 pm
Thu, Apr 27
44 °FDrizzle. Overcast.5 mph91%29.88 "Hg6 mi
10:00 pm44 °FFog.5 mph91%29.90 "HgN/A
9:00 pm44 °FFog.6 mph91%29.91 "HgN/A
8:00 pm44 °FDrizzle. Overcast.6 mph91%29.90 "Hg7 mi
7:00 pm44 °FDrizzle. Overcast.6 mph89%29.91 "Hg11 mi
6:00 pm45 °FQuite cool.5 mph87%29.92 "HgN/A
5:00 pm46 °FOvercast.6 mph79%29.92 "Hg12 mi
4:00 pm47 °FCool.6 mph76%29.92 "HgN/A
3:00 pm47 °FCool.5 mph77%29.91 "HgN/A
2:00 pm47 °FOvercast.6 mph77%29.92 "Hg11 mi
1:00 pm46 °FCool.7 mph79%29.91 "HgN/A
12:00 pm45 °FCool.7 mph83%29.91 "HgN/A
11:00 am44 °FHeavy rain. Overcast.3 mph88%29.90 "Hg6 mi
10:00 am44 °FSprinkles. Cloudy.3 mph88%29.88 "HgN/A
9:00 am43 °FFog.3 mph90%29.88 "HgN/A
8:00 am42 °FLight rain. Overcast.5 mph90%29.85 "Hg4 mi
7:00 am43 °FLight rain. Overcast.6 mph91%29.85 "Hg4 mi
Weather by CustomWeather, © 2017

See weather overviewHow to use our weather pages